Weather History for KTMB - February, 2012

Change the Weather History Date:

Friday, February 17, 2012

  Actual Average Record
Temperature  
Mean Temperature 72 °F -  
Max Temperature 82 °F 77 °F 88 °F (2001)
Min Temperature 62 °F 58 °F 39 °F (1991)
Cooling Degree Days 7    
Growing Degree Days 22 (Base 50)    
Moisture  
Dew Point 64 °F    
Average Humidity 81    
Maximum Humidity 100    
Minimum Humidity 52    
Precipitation  
Precipitation 0.00 in - - ()
Sea Level Pressure  
Sea Level Pressure 30.06 in    
Wind  
Wind Speed 2 mph (SSE)    
Max Wind Speed 10 mph    
Max Gust Speed -    
Visibility 9 miles    
Events      
Averages and records for this station are not official NWS values.
T = Trace of Precipitation, MM = Missing Value Source: NWS Daily Summary

Daily Weather History Graph

Daily Weather History Graph

Search for Another Location

Airport or City:

Trip Planner

Search our weather history database for the weather conditions in past years. The results will help you decide how hot, cold, wet, or windy it might be!

Date:

Astronomy

Feb. 17, 2012 Rise Set
Actual Time 6:55 AM EST 6:16 PM EST
Civil Twilight 6:32 AM EST 6:39 PM EST
Nautical Twilight 6:05 AM EST 7:06 PM EST
Astronomical Twilight 5:38 AM EST 7:33 PM EST
Moon 3:27 AM EST (2/17) 2:24 PM EST (2/17)
Length of Visible Light 12h 07m
Length of Day
11h 20m
Waning Crescent, 19% of the Moon is Illuminated
Feb 17
Waning Crescent
Feb 21
New
Feb 29
First Quarter
Mar 8
Full
Mar 14
Last Quarter

Hourly Weather History & Observations

Time (EST) Temp. Heat Index Dew Point Humidity Pressure Visibility Wind Dir Wind Speed Gust Speed Precip Events Conditions
12:53 AM 64.9 °F - 64.0 °F 97% 30.08 in 10.0 mi Calm Calm - N/A   Clear
1:53 AM 66.0 °F - 64.0 °F 93% 30.07 in 10.0 mi Calm Calm - N/A   Clear
2:53 AM 64.9 °F - 64.0 °F 97% 30.06 in 10.0 mi Calm Calm - N/A   Clear
3:53 AM 64.0 °F - 64.0 °F 100% 30.06 in 10.0 mi Calm Calm - N/A   Clear
4:53 AM 62.6 °F - 62.6 °F 100% 30.05 in 2.5 mi Calm Calm - N/A   Clear
5:11 AM 64.4 °F - 64.4 °F 100% 30.05 in 1.0 mi Calm Calm - N/A   Clear
5:30 AM 64.4 °F - 64.4 °F 100% 30.05 in 2.5 mi Calm Calm - N/A   Clear
5:51 AM 62.6 °F - 60.8 °F 94% 30.06 in 10.0 mi Calm Calm - N/A   Clear
5:53 AM 62.1 °F - 61.0 °F 96% 30.06 in 10.0 mi Calm Calm - N/A   Clear
6:53 AM 64.0 °F - 64.0 °F 100% 30.09 in 10.0 mi Calm Calm - N/A   Clear
7:53 AM 66.9 °F - 66.0 °F 97% 30.09 in 10.0 mi Calm Calm - N/A   Clear
8:53 AM 73.0 °F - 66.9 °F 81% 30.10 in 10.0 mi Calm Calm - N/A   Clear
9:53 AM 75.0 °F - 66.0 °F 73% 30.11 in 10.0 mi South 6.9 mph - N/A   Partly Cloudy
10:53 AM 78.1 °F - 64.0 °F 62% 30.10 in 10.0 mi SSE 5.8 mph - N/A   Scattered Clouds
11:53 AM 77.0 °F - 63.0 °F 62% 30.08 in 10.0 mi Variable 3.5 mph - N/A   Mostly Cloudy
12:53 PM 80.1 °F 81.7 °F 64.0 °F 58% 30.06 in 10.0 mi SSE 9.2 mph - N/A   Mostly Cloudy
1:53 PM 82.0 °F 83.1 °F 63.0 °F 52% 30.02 in 10.0 mi SE 10.4 mph - N/A   Partly Cloudy
2:53 PM 80.1 °F 81.2 °F 62.1 °F 54% 30.01 in 10.0 mi SSE 9.2 mph - N/A   Clear
3:53 PM 79.0 °F - 61.0 °F 54% 30.02 in 10.0 mi SSE 8.1 mph - N/A   Partly Cloudy
4:53 PM 78.1 °F - 62.1 °F 58% 30.02 in 10.0 mi SSE 9.2 mph - N/A   Partly Cloudy
5:53 PM 75.9 °F - 64.0 °F 67% 30.02 in 10.0 mi SE 8.1 mph - N/A   Partly Cloudy
6:53 PM 73.9 °F - 64.0 °F 71% 30.04 in 10.0 mi SSE 5.8 mph - N/A   Partly Cloudy
7:53 PM 72.0 °F - 64.0 °F 76% 30.04 in 10.0 mi SSE 4.6 mph - N/A   Partly Cloudy
8:53 PM 71.1 °F - 64.0 °F 78% 30.05 in 10.0 mi Calm Calm - N/A   Clear
9:53 PM 68.0 °F - 63.0 °F 84% 30.04 in 10.0 mi Calm Calm - N/A   Clear
10:53 PM 64.4 °F - 62.6 °F 94% 30.05 in 10.0 mi Calm Calm - N/A   Clear
11:53 PM 66.9 °F - 64.9 °F 93% 30.02 in 10.0 mi Calm Calm - N/A   Clear